1513155600.33,53415,7.44,72862.3,-8.23,-9.11,-9.31,0,*5D
1513155601.56,53416,7.44,72862.3,-8.23,-9.19,-9.19,0,*5C
1513155602.81,53417,7.44,72866.3,-8.23,-9.11,-9.19,0,*55
1513155604.06,53418,7.44,72862.8,-8.23,-9.11,-9.23,0,*53
1513155605.31,53419,7.44,72860.3,-8.23,-9.11,-9.31,0,*51
1513155606.51,53420,7.44,72866.3,-8.21,-9.19,-9.23,0,*52
1513155607.74,53421,7.44,72860.3,-8.21,-9.11,-9.23,0,*5B
1513155608.94,53422,7.44,72864.0,-8.21,-9.19,-9.31,0,*53
1513155610.13,53423,7.44,72862.3,-8.21,-9.19,-9.31,0,*52
1513155611.35,53424,7.44,72866.5,-8.23,-9.19,-9.31,0,*57
1513155612.57,53425,7.44,72860.8,-8.23,-9.19,-9.31,0,*56
1513155613.79,53426,7.44,72862.0,-8.23,-9.19,-9.31,0,*55
1513155615.02,53427,7.44,72862.0,-8.25,-9.23,-9.37,0,*5D
1513155616.25,53428,7.44,72862.8,-8.25,-9.23,-9.37,0,*52
1513155617.5,53429,7.44,72860.8,-8.25,-9.37,-9.37,0,*56
1513155618.75,53430,7.44,72866.5,-8.25,-9.37,-9.37,0,*5E
1513155619.98,53431,7.44,72862.5,-8.25,-9.27,-9.41,0,*5F
1513155621.23,53432,7.44,72862.3,-8.25,-9.37,-9.37,0,*5C
1513155622.46,53433,7.44,72864.5,-8.25,-9.27,-9.37,0,*5C
1513155623.71,53434,7.44,72862.3,-8.25,-9.37,-9.37,0,*5A
1513155624.94,53435,7.44,72866.8,-8.25,-9.37,-9.27,0,*5A
1513155626.16,53436,7.44,72866.3,-8.25,-9.27,-9.41,0,*58
1513155627.39,53437,7.44,72860.5,-8.25,-9.23,-9.41,0,*5D
1513155628.64,53438,7.44,72862.0,-8.27,-9.27,-9.37,0,*55
1513155629.89,53439,7.44,72864.5,-8.27,-9.27,-9.41,0,*55
1513155631.14,53440,7.44,72862.3,-8.25,-9.37,-9.41,0,*58
1513155632.39,53441,7.44,72860.0,-8.27,-9.27,-9.37,0,*5B
1513155633.64,53442,7.44,72860.3,-8.27,-9.27,-9.37,0,*58
1513155634.89,53443,7.44,72862.0,-8.25,-9.37,-9.41,0,*5B
1513155636.16,53444,7.44,72864.3,-8.27,-9.37,-9.37,0,*5F
1513155637.41,53445,7.44,72862.8,-8.27,-9.27,-9.41,0,*5E
1513155638.67,53446,7.44,72866.5,-8.29,-9.41,-9.45,0,*57
1513155639.9,53447,7.44,72860.0,-8.29,-9.31,-9.45,0,*51
1513155641.15,53448,7.44,72860.0,-8.29,-9.41,-9.53,0,*5E
1513155642.41,53449,7.44,72858.0,-8.29,-9.41,-9.45,0,*58
1513155643.67,53450,7.44,72860.0,-8.29,-9.41,-9.53,0,*57
1513155644.93,53451,7.44,72860.3,-8.29,-9.41,-9.45,0,*51
1513155646.18,53452,7.44,72862.5,-8.29,-9.41,-9.45,0,*52
1513155647.43,53453,7.44,72856.5,-8.33,-9.41,-9.45,0,*58
1513155648.69,53454,7.44,72858.5,-8.33,-9.41,-9.45,0,*5F
1513155649.94,53455,7.44,72852.0,-8.33,-9.41,-9.45,0,*5E
1513155651.2,53456,7.44,72852.5,-8.29,-9.41,-9.45,0,*56
1513155652.45,53457,7.44,72852.8,-8.33,-9.41,-9.53,0,*5B
1513155653.7,53458,7.44,72854.8,-8.33,-9.45,-9.45,0,*57
1513155654.95,53459,7.44,72854.0,-8.33,-9.45,-9.53,0,*51
1513155656.21,53460,7.44,72854.3,-8.33,-9.45,-9.53,0,*5B
1513155657.46,53461,7.44,72852.3,-8.33,-9.45,-9.53,0,*5A
1513155658.73,53462,7.44,72854.5,-8.35,-9.49,-9.49,0,*58
1513155660.0,53463,7.44,72854.3,-8.35,-9.45,-9.49,0,*55
1513155661.28,53464,7.44,72856.3,-8.35,-9.45,-9.49,0,*52
1513155662.55,53465,7.44,72852.3,-8.35,-9.45,-9.49,0,*53
1513155663.8,53466,7.44,72856.3,-8.37,-9.49,-9.61,0,*54
1513155665.04,53467,7.44,72854.3,-8.37,-9.57,-9.61,0,*5A
1513155666.29,53468,7.44,72858.5,-8.35,-9.45,-9.71,0,*55
1513155667.52,53469,7.44,72854.5,-8.37,-9.49,-9.71,0,*5A
1513155668.76,53470,7.44,72852.5,-8.37,-9.57,-9.61,0,*5C
1513155670.02,53471,7.44,72858.3,-8.35,-9.57,-9.61,0,*5F
1513155671.27,53472,7.44,72856.3,-8.37,-9.49,-9.61,0,*51
1513155672.51,53473,7.44,72856.0,-8.37,-9.57,-9.61,0,*5F
1513155673.75,53474,7.44,72858.8,-8.37,-9.49,-9.61,0,*57
1513155674.97,53475,7.44,72856.5,-8.37,-9.57,-9.71,0,*58
1513155676.22,53476,7.44,72854.3,-8.39,-9.61,-9.67,0,*57
1513155677.46,53477,7.44,72856.3,-8.39,-9.53,-9.67,0,*57
1513155678.68,53478,7.44,72860.3,-8.41,-9.61,-9.67,0,*56
1513155679.92,53479,7.44,72856.0,-8.39,-9.53,-9.67,0,*59
1513155681.17,53480,7.44,72858.0,-8.39,-9.61,-9.67,0,*5E
1513155682.39,53481,7.44,72856.8,-8.41,-9.53,-9.67,0,*51
1513155683.63,53482,7.44,72858.8,-8.39,-9.61,-9.75,0,*5F
1513155684.85,53483,7.44,72858.0,-8.41,-9.61,-9.67,0,*52
1513155686.07,53484,7.44,72856.0,-8.41,-9.53,-9.67,0,*54
1513155687.29,53485,7.44,72858.8,-8.41,-9.53,-9.67,0,*55
1513155688.53,53486,7.44,72856.5,-8.41,-9.61,-9.61,0,*51
1513155689.8,53487,7.44,72858.8,-8.39,-9.53,-9.61,0,*5E
1513155691.02,53488,7.44,72856.3,-8.41,-9.61,-9.67,0,*59
1513155692.24,53489,7.44,72858.8,-8.41,-9.61,-9.67,0,*58
1513155693.46,53490,7.44,72858.3,-8.43,-9.67,-9.67,0,*54
1513155694.7,53491,7.44,72856.5,-8.43,-9.67,-9.57,0,*56
1513155695.93,53492,7.44,72858.3,-8.45,-9.57,-9.67,0,*53
1513155697.17,53493,7.44,72854.5,-8.43,-9.57,-9.71,0,*53
1513155698.41,53494,7.44,72858.8,-8.43,-9.57,-9.67,0,*53
1513155699.65,53495,7.44,72854.5,-8.43,-9.57,-9.71,0,*55
1513155700.87,53496,7.44,72856.5,-8.45,-9.57,-9.71,0,*50
1513155702.07,53497,7.44,72858.0,-8.45,-9.67,-9.67,0,*55
1513155703.31,53498,7.44,72858.0,-8.43,-9.57,-9.67,0,*5F
1513155704.52,53499,7.44,72854.0,-8.45,-9.67,-9.67,0,*5B
1513155705.74,53500,7.44,72854.5,-8.45,-9.57,-9.71,0,*5E
1513155706.96,53501,7.44,72856.0,-8.45,-9.57,-9.71,0,*5F
1513155708.17,53502,7.44,72852.8,-8.45,-9.67,-9.67,0,*58
1513155709.37,53503,7.44,72852.8,-8.45,-9.67,-9.71,0,*5E
1513155710.62,53504,7.44,72854.8,-8.47,-9.61,-9.75,0,*59
1513155711.86,53505,7.44,72852.3,-8.45,-9.57,-9.57,0,*5F
1513155713.07,53506,7.44,72854.8,-8.45,-9.67,-9.67,0,*5C
1513155714.29,53507,7.44,72854.3,-8.49,-9.61,-9.71,0,*50
1513155715.52,53508,7.44,72854.3,-8.47,-9.71,-9.71,0,*50
1513155716.77,53509,7.44,72856.8,-8.47,-9.61,-9.71,0,*50
1513155718.01,53510,7.44,72854.5,-8.47,-9.61,-9.75,0,*5C
1513155719.23,53511,7.44,72854.5,-8.49,-9.61,-9.75,0,*53
1513155720.45,53512,7.44,72858.3,-8.49,-9.61,-9.75,0,*50
1513155721.66,53513,7.44,72852.5,-8.49,-9.71,-9.75,0,*50
1513155722.88,53514,7.44,72858.8,-8.51,-9.75,-9.75,0,*5A
1513155724.09,53515,7.44,72854.5,-8.49,-9.71,-9.75,0,*56
1513155725.29,53516,7.44,72858.3,-8.49,-9.71,-9.75,0,*55
1513155726.51,53517,7.44,72856.0,-8.51,-9.67,-9.79,0,*56
1513155727.74,53518,7.44,72852.3,-8.47,-9.71,-9.75,0,*55
1513155728.97,53519,7.44,72852.8,-8.51,-9.75,-9.79,0,*5B
1513155730.2,53520,7.44,72852.5,-8.51,-9.75,-9.79,0,*51
1513155731.42,53521,7.44,72856.5,-8.51,-9.75,-9.79,0,*50
1513155732.65,53522,7.44,72854.5,-8.51,-9.75,-9.79,0,*53
1513155733.88,53523,7.44,72856.0,-8.51,-9.75,-9.79,0,*52
1513155735.1,53524,7.44,72854.3,-8.51,-9.79,-9.89,0,*56
1513155736.3,53525,7.44,72856.0,-8.55,-9.71,-9.93,0,*50
1513155737.52,53526,7.44,72856.8,-8.55,-9.83,-9.93,0,*5E
1513155738.74,53527,7.44,72854.5,-8.51,-9.79,-9.89,0,*55
1513155739.96,53528,7.44,72854.3,-8.55,-9.83,-9.93,0,*50
1513155741.19,53529,7.44,72854.8,-8.51,-9.79,-9.79,0,*54
1513155742.41,53530,7.44,72858.5,-8.55,-9.93,-9.83,0,*59
1513155743.62,53531,7.44,72856.5,-8.55,-9.83,-9.93,0,*58
1513155744.84,53532,7.44,72852.5,-8.55,-9.83,-9.93,0,*5B
1513155746.05,53533,7.44,72856.5,-8.59,-9.83,-9.93,0,*56
1513155747.27,53534,7.44,72860.5,-8.59,-9.83,-9.93,0,*51
1513155748.47,53535,7.44,72856.5,-8.59,-9.79,-9.93,0,*55
1513155749.66,53536,7.44,72858.0,-8.59,-9.79,-9.93,0,*56
1513155750.88,53537,7.44,72858.8,-8.59,-9.83,-9.93,0,*52
1513155752.09,53538,7.44,72852.8,-8.61,-9.89,-9.97,0,*58
1513155753.31,53539,7.44,72856.8,-8.61,-9.89,-9.89,0,*56
1513155754.53,53540,7.44,72858.5,-8.61,-9.89,-9.89,0,*58
1513155755.75,53541,7.44,72856.0,-8.61,-9.89,-9.97,0,*56
1513155756.98,53542,7.44,72856.5,-8.59,-9.83,-9.83,0,*51
1513155758.2,53543,7.44,72854.3,-8.63,-9.83,-9.97,0,*5C
1513155759.44,53544,7.44,72856.8,-8.61,-9.83,-9.97,0,*59
1513155760.64,53545,7.44,72858.0,-8.63,-9.75,-9.89,0,*5C
1513155761.84,53546,7.44,72858.3,-8.63,-9.75,-9.89,0,*5F
1513155763.05,53547,7.44,72856.5,-8.63,-9.83,-9.89,0,*57
1513155764.25,53548,7.44,72858.3,-8.63,-9.75,-9.89,0,*51
1513155765.44,53549,7.44,72858.0,-8.63,-9.75,-9.89,0,*50
1513155766.66,53550,7.44,72858.3,-8.65,-9.89,-9.93,0,*56
1513155767.88,53551,7.44,72860.0,-8.65,-9.89,-9.93,0,*57
1513155769.09,53552,7.44,72858.0,-8.65,-9.89,-9.89,0,*5F
1513155770.32,53553,7.44,72858.3,-8.65,-9.79,-9.89,0,*51
1513155771.54,53554,7.44,72856.5,-8.65,-9.79,-9.89,0,*56
1513155772.75,53555,7.44,72854.5,-8.65,-9.89,-9.89,0,*58
1513155773.98,53556,7.44,72852.5,-8.65,-9.79,-9.89,0,*54
1513155775.19,53557,7.44,72852.8,-8.65,-9.89,-9.89,0,*5A
1513155776.4,53558,7.44,72848.8,-8.65,-9.89,-9.89,0,*55
1513155777.62,53559,7.44,72852.3,-8.65,-9.89,-9.89,0,*54
1513155778.84,53560,7.44,72854.5,-8.65,-9.79,-9.93,0,*5A
1513155780.07,53561,7.44,72852.3,-8.65,-9.79,-9.93,0,*5B
1513155781.26,53562,7.44,72854.8,-8.67,-9.89,-9.93,0,*55
1513155782.47,53563,7.44,72852.5,-8.67,-9.79,-9.93,0,*5B
1513155783.67,53564,7.44,72856.0,-8.67,-9.79,-9.93,0,*5C
1513155784.86,53565,7.44,72852.0,-8.67,-9.89,-9.93,0,*52
1513155786.06,53566,7.44,72854.8,-8.67,-9.79,-9.93,0,*5E
1513155787.31,53567,7.44,72858.0,-8.69,-9.83,-9.93,0,*54
1513155788.51,53568,7.44,72858.3,-8.71,-9.93,-9.97,0,*57
1513155789.76,53569,7.44,72858.3,-8.69,-9.83,-9.93,0,*5A
1513155790.96,53570,7.44,72858.3,-8.67,-9.79,-9.79,0,*5D
1513155792.23,53571,7.44,72858.3,-8.69,-9.83,-9.83,0,*52
1513155793.43,53572,7.44,72858.5,-8.67,-9.79,-9.89,0,*50
1513155794.68,53573,7.44,72858.0,-8.69,-9.79,-9.83,0,*55
1513155795.88,53574,7.44,72856.8,-8.71,-9.79,-9.93,0,*5A
1513155797.09,53575,7.44,72856.0,-8.71,-9.79,-9.93,0,*5B
1513155798.33,53576,7.44,72858.8,-8.71,-9.83,-9.83,0,*5C
1513155799.58,53577,7.44,72858.0,-8.71,-9.83,-9.83,0,*5D
1513155800.78,53578,7.44,72858.8,-8.71,-9.79,-9.93,0,*56
1513155802.02,53579,7.44,72856.0,-8.73,-9.83,-9.89,0,*5B
1513155803.25,53580,7.44,72856.8,-8.73,-9.75,-9.89,0,*54
1513155804.47,53581,7.44,72856.5,-8.71,-9.79,-9.83,0,*51
1513155805.72,53582,7.44,72852.0,-8.73,-9.83,-9.89,0,*5F
1513155806.94,53583,7.44,72858.5,-8.73,-9.75,-9.89,0,*57
1513155808.19,53584,7.44,72858.3,-8.73,-9.83,-9.89,0,*59
1513155809.42,53585,7.44,72856.3,-8.73,-9.75,-9.89,0,*51
1513155810.66,53586,7.44,72856.8,-8.73,-9.83,-9.89,0,*5B
1513155811.9,53587,7.44,72856.0,-8.73,-9.83,-9.97,0,*55
1513155813.16,53588,7.44,72854.0,-8.73,-9.75,-9.83,0,*56
1513155814.43,53589,7.44,72858.0,-8.73,-9.83,-9.83,0,*5E
1513155815.65,53590,7.44,72854.5,-8.73,-9.75,-9.89,0,*55
1513155816.9,53591,7.44,72856.8,-8.73,-9.83,-9.89,0,*5D
1513155818.12,53592,7.44,72860.8,-8.73,-9.75,-9.89,0,*57
1513155819.37,53593,7.44,72860.8,-8.73,-9.83,-9.97,0,*50
1513155820.64,53594,7.44,72858.8,-8.73,-9.83,-9.83,0,*52
1513155821.87,53595,7.44,72858.5,-8.75,-9.75,-9.83,0,*5C
1513155823.09,53596,7.44,72854.5,-8.75,-9.75,-9.83,0,*5F
1513155824.31,53597,7.44,72852.3,-8.77,-9.89,-9.89,0,*55
1513155825.54,53598,7.44,72858.8,-8.77,-9.89,-9.93,0,*51
1513155826.75,53599,7.44,72852.5,-8.75,-9.83,-9.89,0,*53
1513155827.98,53600,7.44,72852.5,-8.77,-9.93,-9.93,0,*58
1513155829.21,53601,7.44,72854.5,-8.77,-9.89,-9.93,0,*52
1513155830.45,53602,7.44,72854.5,-8.77,-9.79,-10.01,0,*6D
1513155831.64,53603,7.44,72856.5,-8.75,-9.89,-9.97,0,*56
1513155832.86,53604,7.44,72856.0,-8.77,-9.89,-9.93,0,*57
1513155834.09,53605,7.44,72854.8,-8.77,-9.89,-9.93,0,*56
1513155835.31,53606,7.44,72854.0,-8.81,-9.93,-9.97,0,*53
1513155836.52,53607,7.44,72854.3,-8.81,-9.93,-9.97,0,*52
1513155837.74,53608,7.44,72856.5,-8.81,-9.97,-9.97,0,*59
1513155838.96,53609,7.44,72858.5,-8.81,-9.97,-9.97,0,*58
1513155840.18,53610,7.44,72856.8,-8.81,-10.05,-9.97,0,*63
1513155841.41,53611,7.44,72862.0,-8.81,-9.97,-10.05,0,*62
1513155842.63,53612,7.44,72856.5,-8.81,-9.97,-9.97,0,*52
1513155843.85,53613,7.44,72858.8,-8.81,-9.93,-10.05,0,*64
1513155845.07,53614,7.44,72854.5,-8.81,-9.93,-9.97,0,*50
1513155846.29,53615,7.44,72858.3,-8.83,-9.83,-9.97,0,*52
1513155847.51,53616,7.44,72856.0,-8.81,-9.93,-10.05,0,*61
1513155848.74,53617,7.44,72854.8,-8.83,-9.83,-10.05,0,*63
1513155849.96,53618,7.44,72856.3,-8.81,-9.97,-9.97,0,*58
1513155851.18,53619,7.44,72860.5,-8.81,-9.93,-9.97,0,*5D
1513155852.38,53620,7.44,72858.0,-8.83,-9.93,-10.05,0,*66
1513155853.59,53621,7.44,72856.5,-8.83,-9.83,-9.97,0,*55
1513155854.81,53622,7.44,72858.8,-8.83,-9.93,-9.83,0,*52
1513155856.04,53623,7.44,72858.5,-8.83,-9.83,-9.93,0,*53
1513155857.26,53624,7.44,72860.0,-8.83,-9.83,-9.93,0,*54
1513155858.48,53625,7.44,72856.5,-8.83,-9.83,-9.93,0,*55
1513155859.67,53626,7.44,72856.3,-8.83,-9.93,-9.93,0,*57
1513155860.9,53627,7.44,72858.8,-8.83,-9.83,-9.93,0,*57
1513155862.1,53628,7.44,72856.8,-8.85,-9.79,-9.93,0,*5B
1513155863.34,53629,7.44,72858.0,-8.85,-9.83,-9.83,0,*5E
1513155864.56,53630,7.44,72858.3,-8.85,-9.83,-9.93,0,*57
1513155865.79,53631,7.44,72858.5,-8.85,-9.79,-9.83,0,*52
1513155867.02,53632,7.44,72858.5,-8.85,-9.79,-9.83,0,*51
1513155868.24,53633,7.44,72856.3,-8.85,-9.79,-9.83,0,*50
1513155869.47,53634,7.44,72856.8,-8.85,-9.71,-9.83,0,*5F
1513155870.7,53635,7.44,72854.3,-8.85,-9.79,-9.83,0,*56
1513155871.9,53636,7.44,72858.3,-8.85,-9.79,-9.89,0,*5F
1513155873.13,53637,7.44,72858.0,-8.85,-9.75,-9.83,0,*58
1513155874.38,53638,7.44,72858.8,-8.87,-9.75,-9.83,0,*55
1513155875.58,53639,7.44,72858.3,-8.85,-9.79,-9.71,0,*57
1513155876.83,53640,7.44,72858.8,-8.87,-9.75,-9.83,0,*5A
1513155878.06,53641,7.44,72858.0,-8.85,-9.71,-9.83,0,*5D
1513155879.27,53642,7.44,72858.0,-8.85,-9.71,-9.79,0,*5B
1513155880.51,53643,7.44,72858.3,-8.87,-9.83,-9.89,0,*5A
1513155881.76,53644,7.44,72860.0,-8.87,-9.83,-9.89,0,*5D
1513155883.03,53645,7.44,72862.3,-8.87,-9.83,-9.83,0,*56
1513155884.27,53646,7.44,72854.3,-8.87,-9.83,-9.89,0,*5F
1513155885.52,53647,7.44,72860.0,-8.87,-9.83,-9.89,0,*5E
1513155886.73,53648,7.44,72856.8,-8.89,-9.83,-9.89,0,*5F
1513155887.95,53649,7.44,72860.5,-8.87,-9.89,-9.89,0,*5A
1513155889.19,53650,7.44,72856.3,-8.87,-9.83,-9.89,0,*58
1513155890.46,53651,7.44,72858.5,-8.87,-9.83,-9.83,0,*53
1513155891.65,53652,7.44,72862.5,-8.89,-9.89,-9.97,0,*51
1513155892.9,53653,7.44,72858.5,-8.89,-9.83,-9.83,0,*5F
1513155894.14,53654,7.44,72858.3,-8.89,-9.83,-9.83,0,*58
1513155895.36,53655,7.44,72858.3,-8.89,-9.83,-9.89,0,*53
1513155896.58,53656,7.44,72860.0,-8.91,-9.79,-9.93,0,*57
1513155897.78,53657,7.44,72858.8,-8.89,-9.75,-9.89,0,*58
1513155899.03,53658,7.44,72862.8,-8.89,-9.83,-9.83,0,*54
1513155900.27,53659,7.44,72862.0,-8.89,-9.83,-9.83,0,*55
1513155901.49,53660,7.44,72862.5,-8.89,-9.83,-9.97,0,*5A
1513155902.7,53661,7.44,72860.3,-8.89,-9.83,-9.89,0,*54
1513155903.93,53662,7.44,72860.3,-8.91,-9.89,-10.01,0,*6C
1513155905.15,53663,7.44,72856.5,-8.91,-9.79,-9.93,0,*51
1513155906.37,53664,7.44,72858.0,-8.89,-9.83,-9.89,0,*51
1513155907.59,53665,7.44,72856.5,-8.91,-9.79,-9.93,0,*57
1513155908.81,53666,7.44,72862.3,-8.91,-9.89,-9.93,0,*5B
1513155910.03,53667,7.44,72860.8,-8.91,-9.93,-10.01,0,*62
1513155911.22,53668,7.44,72856.8,-8.89,-9.89,-9.97,0,*58
1513155912.45,53669,7.44,72856.0,-8.91,-9.93,-10.01,0,*6C
1513155913.66,53670,7.44,72856.0,-8.91,-9.89,-9.97,0,*58
1513155914.89,53671,7.44,72856.3,-8.91,-10.01,-10.01,0,*56
1513155916.13,53672,7.44,72858.8,-8.91,-10.01,-10.01,0,*55
1513155917.36,53673,7.44,72860.0,-8.91,-10.01,-10.01,0,*54
1513155918.59,53674,7.44,72856.8,-8.91,-9.93,-10.01,0,*60
1513155919.79,53675,7.44,72858.3,-8.89,-9.97,-10.01,0,*6C
1513155921.01,53676,7.44,72856.0,-8.91,-9.93,-10.05,0,*66
1513155922.22,53677,7.44,72858.5,-8.93,-10.05,-10.09,0,*5E
1513155923.42,53678,7.44,72860.0,-8.93,-9.97,-10.09,0,*62
1513155924.64,53679,7.44,72858.3,-8.95,-10.05,-10.09,0,*56
1513155925.85,53680,7.44,72856.3,-8.93,-10.05,-10.09,0,*56
1513155927.05,53681,7.44,72858.0,-8.93,-10.05,-10.09,0,*57
1513155928.28,53682,7.44,72858.5,-8.95,-10.05,-10.09,0,*52
1513155929.5,53683,7.44,72860.3,-8.95,-10.05,-10.09,0,*53
1513155930.73,53684,7.44,72856.0,-8.95,-10.09,-10.09,0,*58
1513155931.94,53685,7.44,72856.0,-8.93,-10.05,-10.09,0,*53
1513155933.16,53686,7.44,72854.0,-8.95,-10.05,-10.09,0,*56
1513155934.39,53687,7.44,72856.5,-8.95,-10.05,-10.19,0,*56
1513155935.61,53688,7.44,72858.0,-8.93,-10.05,-10.19,0,*5F
1513155936.83,53689,7.44,72858.8,-8.95,-10.05,-10.09,0,*59
1513155938.06,53690,7.44,72856.5,-8.95,-10.05,-10.09,0,*51
1513155939.27,53691,7.44,72856.3,-8.97,-10.01,-10.15,0,*5B
1513155940.49,53692,7.44,72856.0,-8.97,-10.15,-10.23,0,*58
1513155941.71,53693,7.44,72854.5,-8.95,-10.09,-10.09,0,*5E
1513155942.94,53694,7.44,72858.5,-8.95,-10.09,-10.09,0,*59
1513155944.15,53695,7.44,72858.3,-8.97,-10.09,-10.15,0,*57
1513155945.38,53696,7.44,72856.3,-8.99,-10.09,-10.15,0,*5A
1513155946.59,53697,7.44,72856.5,-8.97,-10.09,-10.15,0,*55
1513155947.83,53698,7.44,72856.5,-8.99,-10.15,-10.23,0,*5C
1513155949.04,53699,7.44,72856.5,-8.97,-10.09,-10.23,0,*5E
1513155950.25,53700,7.44,72858.3,-8.97,-10.09,-10.15,0,*5A
1513155951.48,53701,7.44,72858.0,-8.99,-10.09,-10.15,0,*55
1513155952.71,53702,7.44,72856.0,-8.99,-10.09,-10.15,0,*56
1513155953.93,53703,7.44,72856.8,-8.97,-10.15,-10.23,0,*51
1513155955.16,53704,7.44,72856.5,-8.99,-10.09,-10.15,0,*50
1513155956.4,53705,7.44,72856.5,-8.99,-10.01,-10.15,0,*59
1513155957.63,53706,7.44,72854.3,-8.99,-10.01,-10.09,0,*57
1513155958.86,53707,7.44,72858.8,-8.99,-10.01,-10.01,0,*5E
1513155960.1,53708,7.44,72858.5,-8.99,-10.01,-10.01,0,*51
1513155961.34,53709,7.44,72854.8,-8.99,-10.01,-10.01,0,*50
1513155962.57,53710,7.44,72858.5,-8.99,-10.01,-10.09,0,*50
1513155963.79,53711,7.44,72858.0,-8.99,-10.09,-10.09,0,*59
1513155965.03,53712,7.44,72856.5,-8.99,-10.09,-10.01,0,*52
1513155966.26,53713,7.44,72854.5,-8.99,-10.01,-10.09,0,*53
1513155967.49,53714,7.44,72858.3,-8.99,-9.97,-10.01,0,*6B
1513155968.72,53715,7.44,72856.8,-9.03,-10.05,-10.15,0,*5E
1513155969.96,53716,7.44,72856.3,-9.03,-10.15,-10.05,0,*5D
1513155971.19,53717,7.44,72858.8,-9.03,-10.05,-10.05,0,*5D
1513155972.43,53718,7.44,72862.8,-9.03,-10.15,-10.05,0,*53
1513155973.64,53719,7.44,72856.8,-9.05,-10.05,-10.15,0,*54
1513155974.86,53720,7.44,72856.3,-9.05,-10.05,-10.15,0,*5E
1513155976.09,53721,7.44,72860.8,-9.03,-10.05,-10.15,0,*59
1513155977.31,53722,7.44,72856.0,-9.05,-10.05,-10.15,0,*5C
1513155978.55,53723,7.44,72856.0,-9.03,-10.15,-10.15,0,*5A
1513155979.79,53724,7.44,72856.3,-9.03,-10.05,-10.15,0,*5C
1513155981.0,53725,7.44,72852.5,-9.05,-10.05,-10.15,0,*5B
1513155982.24,53726,7.44,72856.0,-9.03,-10.15,-10.05,0,*5E
1513155983.46,53727,7.44,72852.8,-9.05,-10.15,-10.27,0,*59
1513155984.68,53728,7.44,72856.3,-9.05,-10.05,-10.15,0,*56
1513155985.91,53729,7.44,72856.5,-9.07,-10.09,-10.19,0,*55
1513155987.15,53730,7.44,72854.8,-9.07,-10.19,-10.31,0,*56
1513155988.4,53731,7.44,72856.3,-9.07,-10.19,-10.19,0,*5D
1513155989.64,53732,7.44,72856.0,-9.07,-10.23,-10.31,0,*5D
1513155990.87,53733,7.44,72858.3,-9.07,-10.23,-10.31,0,*5C
1513155992.09,53734,7.44,72858.5,-9.09,-10.31,-10.23,0,*55
1513155993.33,53735,7.44,72856.3,-9.07,-10.31,-10.23,0,*5A
1513155994.56,53736,7.44,72856.3,-9.07,-10.23,-10.23,0,*5A
1513155995.78,53737,7.44,72862.0,-9.09,-10.31,-10.31,0,*55
1513155997.02,53738,7.44,72858.3,-9.07,-10.31,-10.31,0,*54
1513155998.26,53739,7.44,72856.8,-9.07,-10.31,-10.31,0,*55
1513155999.49,53740,7.44,72856.8,-9.09,-10.31,-10.31,0,*55
1513156000.7,53741,7.44,72854.8,-9.09,-10.23,-10.45,0,*54
1513156001.93,53742,7.44,72854.8,-9.09,-10.31,-10.35,0,*53
1513156003.15,53743,7.44,72854.3,-9.09,-10.23,-10.35,0,*51
1513156004.38,53744,7.44,72856.5,-9.09,-10.31,-10.35,0,*55
1513156005.6,53745,7.44,72850.8,-9.09,-10.31,-10.31,0,*50
1513156006.85,53746,7.44,72852.0,-9.11,-10.35,-10.27,0,*59
1513156008.13,53747,7.44,72852.8,-9.11,-10.27,-10.41,0,*5B
1513156009.37,53748,7.44,72852.0,-9.11,-10.27,-10.35,0,*57
1513156010.62,53749,7.44,72850.8,-9.11,-10.27,-10.35,0,*56
1513156011.89,53750,7.44,72856.0,-9.11,-10.27,-10.41,0,*5D
1513156013.12,53751,7.44,72854.0,-9.13,-10.35,-10.35,0,*5E
1513156014.34,53752,7.44,72858.0,-9.13,-10.35,-10.27,0,*5E
1513156015.57,53753,7.44,72858.5,-9.13,-10.35,-10.35,0,*5C
1513156016.79,53754,7.44,72852.0,-9.13,-10.27,-10.35,0,*58
1513156018.01,53755,7.44,72852.5,-9.13,-10.27,-10.27,0,*5A
1513156019.23,53756,7.44,72852.8,-9.13,-10.27,-10.27,0,*59
1513156020.45,53757,7.44,72848.8,-9.13,-10.27,-10.27,0,*58
1513156021.68,53758,7.44,72854.5,-9.13,-10.27,-10.35,0,*54
1513156022.9,53759,7.44,72848.5,-9.13,-10.27,-10.35,0,*55
1513156024.12,53760,7.44,72850.8,-9.13,-10.35,-10.35,0,*5C
1513156025.35,53761,7.44,72852.0,-9.13,-10.27,-10.35,0,*5E
1513156026.61,53762,7.44,72852.5,-9.15,-10.41,-10.45,0,*5C
1513156027.85,53763,7.44,72848.0,-9.15,-10.31,-10.45,0,*5A
1513156029.12,53764,7.44,72850.0,-9.15,-10.31,-10.41,0,*59
1513156030.42,53765,7.44,72848.5,-9.15,-10.41,-10.41,0,*5F
1513156031.69,53766,7.44,72854.3,-9.17,-10.31,-10.41,0,*59
1513156032.96,53767,7.44,72852.5,-9.17,-10.31,-10.41,0,*58
1513156034.2,53768,7.44,72854.3,-9.17,-10.31,-10.31,0,*50
1513156035.47,53769,7.44,72848.0,-9.15,-10.41,-10.31,0,*54
1513156036.72,53770,7.44,72852.3,-9.17,-10.27,-10.31,0,*5E
1513156037.96,53771,7.44,72850.3,-9.17,-10.31,-10.31,0,*58
1513156039.2,53772,7.44,72852.0,-9.15,-10.31,-10.31,0,*59
1513156040.45,53773,7.44,72852.5,-9.17,-10.31,-10.31,0,*5A
1513156041.69,53774,7.44,72852.0,-9.17,-10.31,-10.31,0,*5D
1513156042.93,53775,7.44,72852.5,-9.17,-10.27,-10.31,0,*5B
1513156044.19,53776,7.44,72854.3,-9.17,-10.19,-10.27,0,*52
1513156045.43,53777,7.44,72854.8,-9.17,-10.19,-10.27,0,*53
1513156046.68,53778,7.44,72852.5,-9.17,-10.19,-10.27,0,*5C
1513156047.9,53779,7.44,72852.3,-9.19,-10.31,-10.31,0,*5E
1513156049.13,53780,7.44,72852.0,-9.19,-10.23,-10.35,0,*5F
1513156050.35,53781,7.44,72852.8,-9.19,-10.31,-10.35,0,*5D
1513156051.57,53782,7.44,72854.0,-9.19,-10.23,-10.31,0,*59
1513156052.79,53783,7.44,72854.0,-9.19,-10.31,-10.31,0,*5B
1513156054.01,53784,7.44,72852.8,-9.19,-10.23,-10.31,0,*5F
1513156055.23,53785,7.44,72852.0,-9.19,-10.31,-10.31,0,*5D
1513156056.45,53786,7.44,72854.3,-9.19,-10.23,-10.31,0,*5D
1513156057.69,53787,7.44,72852.8,-9.21,-10.23,-10.23,0,*54
1513156058.93,53788,7.44,72858.8,-9.21,-10.23,-10.23,0,*5B
1513156060.17,53789,7.44,72852.5,-9.21,-10.23,-10.31,0,*59
1513156061.41,53790,7.44,72852.8,-9.21,-10.19,-10.23,0,*5B
1513156062.65,53791,7.44,72852.8,-9.21,-10.23,-10.23,0,*53
1513156063.89,53792,7.44,72854.0,-9.21,-10.31,-10.23,0,*53
1513156065.13,53793,7.44,72854.8,-9.21,-10.31,-10.23,0,*52
1513156066.35,53794,7.44,72852.3,-9.19,-10.23,-10.31,0,*5E
1513156067.57,53795,7.44,72854.0,-9.23,-10.27,-10.35,0,*56
1513156068.81,53796,7.44,72852.0,-9.21,-10.31,-10.23,0,*57
1513156070.05,53797,7.44,72854.5,-9.21,-10.23,-10.31,0,*56
1513156071.29,53798,7.44,72854.5,-9.21,-10.31,-10.31,0,*5A
1513156072.52,53799,7.44,72852.8,-9.27,-10.27,-10.27,0,*5D
1513156073.74,53800,7.44,72854.0,-9.23,-10.35,-10.27,0,*55
1513156074.96,53801,7.44,72854.0,-9.23,-10.35,-10.35,0,*57
1513156076.18,53802,7.44,72852.8,-9.27,-10.35,-10.35,0,*50
1513156077.4,53803,7.44,72856.3,-9.23,-10.27,-10.35,0,*56
1513156078.62,53804,7.44,72856.3,-9.23,-10.27,-10.35,0,*51
1513156079.84,53805,7.44,72858.5,-9.27,-10.35,-10.27,0,*54
1513156081.06,53806,7.44,72856.5,-9.23,-10.23,-10.27,0,*54
1513156082.28,53807,7.44,72856.5,-9.27,-10.27,-10.35,0,*56
1513156083.51,53808,7.44,72856.0,-9.27,-10.27,-10.35,0,*59
1513156084.73,53809,7.44,72856.3,-9.27,-10.27,-10.27,0,*5B
1513156085.96,53810,7.44,72856.8,-9.27,-10.35,-10.35,0,*53
1513156087.18,53811,7.44,72858.0,-9.27,-10.27,-10.35,0,*51
1513156088.4,53812,7.44,72860.0,-9.27,-10.27,-10.35,0,*52
1513156089.63,53813,7.44,72856.0,-9.27,-10.27,-10.27,0,*50
1513156090.85,53814,7.44,72854.8,-9.27,-10.27,-10.27,0,*57
1513156092.08,53815,7.44,72852.0,-9.27,-10.35,-10.27,0,*55
1513156093.3,53816,7.44,72852.8,-9.27,-10.27,-10.35,0,*56
1513156094.52,53817,7.44,72854.8,-9.23,-10.35,-10.35,0,*50
1513156095.74,53818,7.44,72852.0,-9.27,-10.27,-10.35,0,*58
1513156096.97,53819,7.44,72852.5,-9.27,-10.35,-10.35,0,*5A
1513156098.2,53820,7.44,72856.5,-9.27,-10.27,-10.35,0,*53
1513156099.42,53821,7.44,72854.0,-9.27,-10.27,-10.35,0,*52
1513156100.72,53822,7.44,72852.8,-9.29,-10.41,-10.41,0,*5C
1513156101.97,53823,7.44,72854.0,-9.29,-10.31,-10.31,0,*5D
1513156103.21,53824,7.44,72856.0,-9.29,-10.31,-10.31,0,*5A
1513156104.46,53825,7.44,72856.0,-9.29,-10.31,-10.31,0,*5B
1513156105.68,53826,7.44,72852.0,-9.31,-10.27,-10.31,0,*56
1513156106.91,53827,7.44,72856.5,-9.31,-10.19,-10.27,0,*5D
1513156108.13,53828,7.44,72854.5,-9.31,-10.27,-10.27,0,*5F
1513156109.35,53829,7.44,72852.0,-9.31,-10.27,-10.31,0,*59
1513156110.6,53830,7.44,72852.8,-9.29,-10.27,-10.31,0,*58